OK1VCF-8 Weather Reports


time (UTC)temp
F
wind
direction
speed
knots
gust
knots
rain 1hr
in
rain 24hr
in
rain mn
in
humidity
%
barometer
mb
20260504025637 52 0 0.0 0.0 0.00 0.00 0.00 68 1014.2
20260504024919 52 0 0.0 0.0 0.00 0.00 0.00 69 1014.2
20260504024200 52 0 0.0 0.0 0.00 0.00 0.00 69 1014.3
20260504023441 52 0 0.0 0.0 0.00 0.00 0.00 68 1014.3
20260504022721 52 0 0.0 0.0 0.00 0.00 0.00 67 1014.4
20260504022004 53 0 0.0 0.0 0.00 0.00 0.00 66 1014.4
20260504021246 54 0 0.0 0.0 0.00 0.00 0.00 65 1014.2
20260504020525 54 0 0.0 0.0 0.00 0.00 0.00 64 1014.2
20260504015807 54 0 0.0 0.0 0.00 0.00 0.00 64 1014.1
20260504015046 54 0 0.0 0.0 0.00 0.00 0.00 64 1014.0
20260504014329 54 0 0.0 0.0 0.00 0.00 0.00 64 1014.0
20260504013611 55 0 0.0 0.0 0.00 0.00 0.00 62 1014.1
20260504012847 56 0 0.0 0.0 0.00 0.00 0.00 62 1014.1
20260504011819 56 0 0.0 0.0 0.00 0.00 0.00 60 1014.2
20260504011033 56 0 0.0 0.0 0.00 0.00 0.00 60 1014.0
20260504010248 56 0 0.0 0.0 0.00 0.00 0.00 60 1014.4
20260504004019 56 0 0.0 0.0 0.00 0.00 0.00 60 1013.9
20260504003206 56 0 0.0 0.0 0.00 0.00 0.00 59 1013.7
20260504002340 57 0 0.0 0.0 0.00 0.00 0.00 58 1013.7
20260504001524 58 0 0.0 0.0 0.00 0.00 0.00 58 1013.6
20260504000704 58 0 0.0 0.0 0.00 0.00 0.00 56 1013.6
20260503235842 58 0 0.0 0.0 0.00 0.00 0.00 56 1013.8
20260503235011 58 0 0.0 0.0 0.00 0.00 0.00 54 1013.6
20260503234157 59 0 0.0 0.0 0.00 0.00 0.00 54 1013.6
20260503233415 59 0 0.0 0.0 0.00 0.00 0.00 54 1013.4
20260503232639 60 0 0.0 0.0 0.00 0.00 0.00 52 1013.4
20260503231625 60 0 0.0 0.0 0.00 0.00 0.00 52 1013.4
20260503230907 60 0 0.0 0.0 0.00 0.00 0.00 52 1013.3
20260503230150 60 0 0.0 0.0 0.00 0.00 0.00 52 1013.3
20260503225432 60 0 0.0 0.0 0.00 0.00 0.00 52 1013.3
20260503224713 60 0 0.0 0.0 0.00 0.00 0.00 51 1013.2
20260503223955 60 0 0.0 0.0 0.00 0.00 0.00 51 1013.2
20260503223238 60 0 0.0 0.0 0.00 0.00 0.00 51 1013.7
20260503222518 61 0 0.0 0.0 0.00 0.00 0.00 50 1013.2
20260503221800 61 0 0.0 0.0 0.00 0.00 0.00 50 1013.2
20260503221041 62 0 0.0 0.0 0.00 0.00 0.00 50 1013.2
20260503220322 62 0 0.0 0.0 0.00 0.00 0.00 50 1013.4
20260503215604 62 0 0.0 0.0 0.00 0.00 0.00 49 1013.4
20260503214845 62 0 0.0 0.0 0.00 0.00 0.00 49 1013.4
20260503214126 62 0 0.0 0.0 0.00 0.00 0.00 50 1013.2
20260503213408 62 0 0.0 0.0 0.00 0.00 0.00 48 1013.4
20260503212405 62 0 0.0 0.0 0.00 0.00 0.00 48 1013.4
20260503211646 62 0 0.0 0.0 0.00 0.00 0.00 48 1013.6
20260503210929 64 0 0.0 0.0 0.00 0.00 0.00 46 1013.4
20260503210211 64 0 0.0 0.0 0.00 0.00 0.00 46 1013.4
20260503205454 64 0 0.0 0.0 0.00 0.00 0.00 46 1013.4
20260503204737 64 0 0.0 0.0 0.00 0.00 0.00 45 1013.8
20260503204019 64 0 0.0 0.0 0.00 0.00 0.00 46 1013.5
20260503203300 64 0 0.0 0.0 0.00 0.00 0.00 45 1013.5
20260503202541 64 0 0.0 0.0 0.00 0.00 0.00 44 1013.4
20260503201822 64 0 0.0 0.0 0.00 0.00 0.00 44 1013.4
20260503201103 65 0 0.0 0.0 0.00 0.00 0.00 44 1013.5
20260503200345 65 0 0.0 0.0 0.00 0.00 0.00 44 1013.5
20260503195625 65 0 0.0 0.0 0.00 0.00 0.00 43 1013.6
20260503194907 66 0 0.0 0.0 0.00 0.00 0.00 43 1013.6
20260503194149 66 0 0.0 0.0 0.00 0.00 0.00 42 1013.6
20260503193147 66 0 0.0 0.0 0.00 0.00 0.00 42 1013.4
20260503192429 66 0 0.0 0.0 0.00 0.00 0.00 42 1013.4
20260503191708 66 0 0.0 0.0 0.00 0.00 0.00 41 1013.4
20260503190950 66 0 0.0 0.0 0.00 0.00 0.00 40 1013.3
20260503190231 67 0 0.0 0.0 0.00 0.00 0.00 40 1013.7
20260503185511 67 0 0.0 0.0 0.00 0.00 0.00 40 1013.2
20260503184755 68 0 0.0 0.0 0.00 0.00 0.00 38 1013.2
20260503184037 68 0 0.0 0.0 0.00 0.00 0.00 37 1013.2
20260503183318 68 0 0.0 0.0 0.00 0.00 0.00 36 1013.1
20260503182600 68 0 0.0 0.0 0.00 0.00 0.00 36 1013.0
20260503181840 68 0 0.0 0.0 0.00 0.00 0.00 34 1012.9
20260503181122 70 0 0.0 0.0 0.00 0.00 0.00 34 1012.9
20260503180401 70 0 0.0 0.0 0.00 0.00 0.00 33 1012.8
20260503175641 70 0 0.0 0.0 0.00 0.00 0.00 32 1012.7
20260503173219 74 0 0.0 0.0 0.00 0.00 0.00 28 1012.6
20260503172501 74 0 0.0 0.0 0.00 0.00 0.00 27 1012.6
20260503171742 76 0 0.0 0.0 0.00 0.00 0.00 26 1012.6
20260503171024 76 0 0.0 0.0 0.00 0.00 0.00 26 1012.6
20260503170304 78 0 0.0 0.0 0.00 0.00 0.00 25 1012.7
20260503150310 98 0 0.0 0.0 0.00 0.00 0.00 14 1013.3
20260503131036 82 0 0.0 0.0 0.00 0.00 0.00 22 1014.9
20260503130312 82 0 0.0 0.0 0.00 0.00 0.00 26 1015.0
20260503110433 78 0 0.0 0.0 0.00 0.00 0.00 26 1016.4
20260503090447 74 0 0.0 0.0 0.00 0.00 0.00 32 1017.6
20260503080333 71 0 0.0 0.0 0.00 0.00 0.00 38 1018.0
20260503072652 66 0 0.0 0.0 0.00 0.00 0.00 42 1018.3
20260503071932 65 0 0.0 0.0 0.00 0.00 0.00 44 1018.2
20260503071157 64 0 0.0 0.0 0.00 0.00 0.00 45 1018.4
20260503070422 64 0 0.0 0.0 0.00 0.00 0.00 46 1018.4
20260503054600 56 0 0.0 0.0 0.00 0.00 0.00 57 1018.4
20260503053840 56 0 0.0 0.0 0.00 0.00 0.00 57 1018.5
20260503053123 55 0 0.0 0.0 0.00 0.00 0.00 58 1018.5
20260503052403 54 0 0.0 0.0 0.00 0.00 0.00 58 1018.6
20260503051646 54 0 0.0 0.0 0.00 0.00 0.00 60 1018.6
20260503050927 54 0 0.0 0.0 0.00 0.00 0.00 60 1018.6
20260503050210 52 0 0.0 0.0 0.00 0.00 0.00 62 1018.8
20260503045451 52 0 0.0 0.0 0.00 0.00 0.00 62 1018.7
20260503044733 53 0 0.0 0.0 0.00 0.00 0.00 61 1018.6
20260503044015 54 0 0.0 0.0 0.00 0.00 0.00 58 1018.8
20260503043257 52 0 0.0 0.0 0.00 0.00 0.00 62 1018.6
20260503042253 54 0 0.0 0.0 0.00 0.00 0.00 60 1018.6
20260503041535 58 0 0.0 0.0 0.00 0.00 0.00 54 1018.5
20260503040816 53 0 0.0 0.0 0.00 0.00 0.00 62 1018.4
20260503040058 54 0 0.0 0.0 0.00 0.00 0.00 60 1018.4
20260503035340 53 0 0.0 0.0 0.00 0.00 0.00 64 1018.4
20260503034622 50 0 0.0 0.0 0.00 0.00 0.00 70 1018.4
20260503033906 48 0 0.0 0.0 0.00 0.00 0.00 72 1018.4
20260503033149 48 0 0.0 0.0 0.00 0.00 0.00 72 1018.4
20260503031007 47 0 0.0 0.0 0.00 0.00 0.00 72 1018.2
20260503030250 47 0 0.0 0.0 0.00 0.00 0.00 70 1018.1